Inquirer Daily News

Weather

Get conditions and forecasts for any City, State, ZIP code or Country:  
Northeast Philadelphia, PA
on Saturday, November 17, 2012

Saturday
Previous Day Next Day
Daily Summary
 ActualAverage (KTTN)Record (KTTN)
Temperature
Mean Temperature °F 45°F  
Max Temperature 53°F 54°F 72°F (1896)
Min Temperature 32°F 37°F 19°F (1933)
Degree Days
Heating Degree Days 22 20  
Month to date heating degree days 293  
Since 1 July heating degree days 690  
Cooling Degree Days 0 0  
Month to date cooling degree days 0  
Year to date cooling degree days 965  
Moisture
Dew Point 28°F   
Average Humidity 61    
Maximum Humidity 85    
Minimum Humidity 41    
Precipitation
Precipitation 0.00 in 0.12 in 1.30 in (2002)
Month to date precipitation 1.77  
Year to date precipitation 41.20  
Snow
Snow 0.00 in in in ()
Month to date snowfall  
Since 1 July snowfall  
Since 1 September snowfall  
Snow Depth in   
Wind
Wind Speed 6 mph   
Max Wind Speed 14 mph   
Max Gust Speed mph   
Visibility 10 miles   
Events     

Key: T is trace of precipitation, MM is missing value
Source: NWS Daily Summary
Time(EST)TemperatureDew PointHumidity Pressure Visibility Wind DirectionWind SpeedGust SpeedPrecipitationEvents Conditions
12:54 AM 35.1°F 23.0°F 61% 30.47 in 10.0 miles North 6.9 mph - N/A   Clear
1:54 AM 34.0°F 21.9°F 61% 30.48 in 10.0 miles NNE 4.6 mph - N/A   Clear
2:54 AM 33.1°F 21.9°F 64% 30.49 in 10.0 miles North 4.6 mph - N/A   Clear
3:54 AM 34.0°F 23.0°F 64% 30.50 in 10.0 miles NNW 4.6 mph - N/A   Clear
4:54 AM 32.0°F 23.0°F 69% 30.52 in 10.0 miles North 5.8 mph - N/A   Clear
5:54 AM 34.0°F 25.0°F 70% 30.54 in 10.0 miles North 9.2 mph - N/A   Clear
6:54 AM 34.0°F 25.0°F 70% 30.56 in 10.0 miles North 9.2 mph - N/A   Clear
7:54 AM 37.9°F 26.1°F 62% 30.58 in 10.0 miles NNE 11.5 mph - N/A   Clear
8:54 AM 43.0°F 28.0°F 56% 30.60 in 10.0 miles NNE 13.8 mph - N/A   Clear
9:54 AM 46.0°F 28.9°F 51% 30.62 in 10.0 miles NE 12.7 mph - N/A   Clear
10:54 AM 50.0°F 28.9°F 44% 30.62 in 10.0 miles NE 10.4 mph - N/A   Clear
11:54 AM 51.1°F 28.9°F 43% 30.60 in 10.0 miles NE 9.2 mph - N/A   Clear
12:54 PM 52.0°F 30.9°F 45% 30.59 in 10.0 miles NE 12.7 mph - N/A   Clear
1:54 PM 53.1°F 30.0°F 41% 30.58 in 10.0 miles East 11.5 mph - N/A   Clear
2:54 PM 53.1°F 30.9°F 43% 30.59 in 10.0 miles NE 8.1 mph - N/A   Clear
3:54 PM 51.1°F 30.9°F 46% 30.60 in 10.0 miles ESE 6.9 mph - N/A   Clear
4:54 PM 46.9°F 30.0°F 52% 30.60 in 10.0 miles ENE 3.5 mph - N/A   Clear
5:54 PM 44.1°F 30.0°F 58% 30.62 in 10.0 miles Calm Calm - N/A   Clear
6:54 PM 43.0°F 30.9°F 62% 30.62 in 10.0 miles Calm Calm - N/A   Clear
7:54 PM 37.9°F 30.0°F 73% 30.62 in 10.0 miles Calm Calm - N/A   Clear
8:54 PM 37.0°F 30.9°F 79% 30.63 in 10.0 miles Calm Calm - N/A   Clear
9:54 PM 37.0°F 30.9°F 79% 30.64 in 9.0 miles Calm Calm - N/A   Clear
10:54 PM 35.1°F 30.9°F 85% 30.64 in 9.0 miles Calm Calm - N/A   Clear
11:54 PM 34.0°F 30.0°F 85% 30.65 in 8.0 miles Calm Calm - N/A   Clear
Astronomy
Sunrise:06:48 AM (EST) Moon Rise:10:31 AM (EST)
Sunset:04:41 PM (EST) Moon Set:08:48 PM (EST)
Moon Phase
Nov. 17 Nov. 20 Nov. 28 Dec. 06 Dec. 13

Copyright © 2014 The Weather Underground, Inc.